カタログに戻る

FENGYUN 1C DEB

運用中SSO
NORAD 35234·DEBRIS·🇨🇳 China

打ち上げ May 10, 1999 から Taiyuan Satellite Launch Center

Loading…

次のパス (今後24時間)

TLE

最新Source: Space-Track

元期: Sep 14, 2026, 08:40 UTC

1 35234U 99025DQS 26257.36161067  .00003177  00000-0  52531-3 0  9991
2 35234  98.0447 285.4686 0098009 110.2533 250.9241 14.67875912983969

AllMySatでFENGYUN 1C DEBをリアルタイム追跡

Download on the App Store